Campo, CA

6:45 AM PST on February 23, 2017 (GMT -0800)
Campo

Weather History for KCZZ - October, 2014

Change the Weather History Date:

Tuesday, October 7, 2014

  Actual Average Record
Temperature  
Mean Temperature 73 °F 63 °F  
Max Temperature 83 °F 82 °F 97 °F (1991)
Min Temperature 63 °F 44 °F 31 °F (2006)
Degree Days  
Heating Degree Days 0 4  
Month to date heating degree days 0 22  
Since 1 July heating degree days 17 72  
Cooling Degree Days 8 2  
Month to date cooling degree days 28 14  
Year to date cooling degree days 890 825  
Growing Degree Days 23 (Base 50)    
Moisture  
Dew Point 39 °F    
Average Humidity 26    
Maximum Humidity 34    
Minimum Humidity 18    
Precipitation  
Precipitation 0.00 in 0.03 in 0.78 in (1983)
Month to date precipitation 0.00 0.13  
Year to date precipitation 4.79 11.64  
Since 1 July precipitation 2.03  
Snow  
Snow 0.00 in - - ()
Month to date snowfall 0.0  
Year to date snowfall 0.0  
Snow Depth 0.00 in    
Sea Level Pressure  
Sea Level Pressure 29.86 in    
Wind  
Wind Speed 7 mph (ENE)    
Max Wind Speed 22 mph    
Max Gust Speed 24 mph    
T = Trace of Precipitation, MM = Missing Value Source: NWS Daily Summary

Daily Weather History Graph

Daily Weather History Graph

Search for Another Location

Airport or City:

Trip Planner

Search our weather history database for the weather conditions in past years. The results will help you decide how hot, cold, wet, or windy it might be!

Date:

Astronomy

Oct. 07, 2014 Rise Set
Actual Time 6:44 AM PDT 6:22 PM PDT
Civil Twilight 6:19 AM PDT 6:47 PM PDT
Nautical Twilight 5:50 AM PDT 7:15 PM PDT
Astronomical Twilight 5:22 AM PDT 7:44 PM PDT
Moon 6:00 PM PDT (10/7) 5:48 AM PDT (10/7)
Length of Visible Light 12h 27m
Length of Day
11h 38m
Waxing Gibbous, 99% of the Moon is Illuminated
Oct 7
Waxing Gibbous
Oct 8
Full
Oct 15
Last Quarter
Oct 23
New
Oct 30
First Quarter

Hourly Weather History & Observations

Time (PDT) Temp. Dew Point Humidity Pressure Visibility Wind Dir Wind Speed Gust Speed Precip Events Conditions
12:52 AM 64.0 °F 30.9 °F 29% 29.87 in - North 3.5 mph - N/A   Unknown
1:52 AM 64.9 °F 28.9 °F 26% 29.86 in - NE 6.9 mph - N/A   Unknown
2:52 AM 64.9 °F 30.0 °F 27% 29.84 in - NE 6.9 mph - N/A   Unknown
3:52 AM 64.9 °F 32.0 °F 29% 29.85 in - East 3.5 mph - N/A   Unknown
4:52 AM 64.9 °F 32.0 °F 29% 29.85 in - East 3.5 mph - N/A   Unknown
5:52 AM 66.0 °F 30.9 °F 27% 29.86 in - ENE 4.6 mph - N/A   Unknown
6:52 AM 64.9 °F 36.0 °F 34% 29.88 in - NE 3.5 mph - N/A   Unknown
7:52 AM 66.0 °F 37.0 °F 34% 29.90 in - Calm Calm - N/A   Unknown
8:52 AM 72.0 °F 39.0 °F 30% 29.89 in - Calm Calm - N/A   Unknown
9:52 AM 78.1 °F 37.9 °F 24% 29.89 in - SSW 3.5 mph - N/A   Unknown
10:52 AM 81.0 °F 33.1 °F 18% 29.90 in - East 6.9 mph - N/A   Unknown
11:52 AM 81.0 °F 36.0 °F 20% 29.88 in - ESE 12.7 mph - N/A   Unknown
12:18 PM 81.0 °F 36.0 °F 20% 29.97 in - ENE 12.7 mph - N/A   Unknown
12:52 PM 81.0 °F 37.9 °F 21% 29.86 in - East 15.0 mph - N/A   Unknown
1:52 PM 82.0 °F 39.9 °F 22% 29.83 in - ENE 11.5 mph - N/A   Unknown
2:52 PM 82.0 °F 39.9 °F 22% 29.82 in - NE 15.0 mph - N/A   Unknown
3:52 PM 80.1 °F 45.0 °F 29% 29.83 in - NE 13.8 mph - N/A   Unknown
4:52 PM 79.0 °F 43.0 °F 28% 29.82 in - ENE 15.0 mph - N/A   Unknown
5:52 PM 77.0 °F 44.1 °F 31% 29.81 in - NE 16.1 mph - N/A   Unknown
6:52 PM 73.0 °F 46.9 °F 39% 29.84 in - NNE 5.8 mph - N/A   Unknown
7:52 PM 70.0 °F 50.0 °F 49% 29.86 in - ENE 6.9 mph - N/A   Unknown
8:52 PM 69.1 °F 51.1 °F 53% 29.85 in - NNE 9.2 mph - N/A   Unknown
9:52 PM 66.9 °F 51.1 °F 57% 29.84 in - East 3.5 mph - N/A   Unknown
10:52 PM 66.0 °F 50.0 °F 56% 29.84 in - Calm Calm - N/A   Unknown
11:52 PM 64.9 °F 48.9 °F 56% 29.83 in - Calm Calm - N/A   Unknown